User: anonymous   Login
Location: Alfortville
(48.8058°N, 2.4204°E)
Time: 12:19:56
(UTC+00:00)
Language:

NOSS 3-1 (A) - Orbit

View from above orbital plane
View from above orbital plane
View from above satellite
View from above satellite

Ground track
Ground track

The orbit data is extracted from the following two-line orbital elements,

1 26905U 01040A   22014.18059929 0.00000000  00000-0  00000-0 0    02
2 26905  63.4001  77.6884 0521300   2.9293 357.0707 13.40805296    01
Epoch (UTC): 14 January 2022 04:20:03
Eccentricity: 0.0521300
inclination: 63.4001°
perigee height: 716 km
apogee height: 1496 km
right ascension of ascending node: 77.6884°
argument of perigee: 2.9293°
revolutions per day: 13.40805296
mean anomaly at epoch: 357.0707°
orbit number at epoch: 0

The dashed part of the orbit path shows where the satellite is in the earth's shadow,  

DLR